Location: St Paul
(33.4390°N, 83.7350°W)
Time: 14:44:15
(UTC-04:00)

GPS 2-05 Rocket1 - Pass Details

Date: 06 October 2017
Orbit: 366 x 433 km, 35.6° (Epoch: 22 October)

Event Time Altitude Azimuth Distance (km) Brightness Sun altitude
Rises 20:48:03 0° 271° (W) 2,390 8.1 -20.8°
Reaches altitude 10° 20:50:12 10° 275° (W) 1,528 6.8 -21.2°
Enters shadow 20:53:23 57° 331° (NNW) 514 3.2 -21.9°
